| time (UTC) | temp F | wind direction | speed MPH | gust MPH | rain 1hr in | rain 24hr in | rain mn in | humidity % | barometer mb |
| 20260508161801 | 68 | 5 | 8.0 | 11.0 | 0.00 | 0.00 | 0.00 | 52 | 3407.7 |
| 20260508161257 | 68 | 165 | 2.0 | 3.0 | 0.00 | 0.00 | 0.00 | 53 | 3407.9 |
| 20260508160755 | 68 | 138 | 1.0 | 2.0 | 0.00 | 0.00 | 0.00 | 53 | 3408.0 |
| 20260508160253 | 68 | 85 | 1.0 | 2.0 | 0.00 | 0.00 | 0.00 | 55 | 3408.3 |
| 20260508155749 | 68 | 142 | 0.0 | 2.0 | 0.00 | 0.00 | 0.00 | 54 | 3408.3 |
| 20260508155246 | 67 | 303 | 2.0 | 3.0 | 0.00 | 0.00 | 0.00 | 53 | 3408.2 |
| 20260508154743 | 67 | 152 | 1.0 | 2.0 | 0.00 | 0.00 | 0.00 | 59 | 3408.5 |
| 20260508154241 | 67 | 173 | 1.0 | 2.0 | 0.00 | 0.00 | 0.00 | 54 | 3408.5 |
| 20260508153737 | 66 | 150 | 0.0 | 0.0 | 0.00 | 0.00 | 0.00 | 54 | 3408.5 |
| 20260508153235 | 66 | 108 | 2.0 | 2.0 | 0.00 | 0.00 | 0.00 | 59 | 3408.6 |
| 20260508152731 | 66 | 144 | 0.0 | 0.0 | 0.00 | 0.00 | 0.00 | 56 | 3408.6 |
| 20260508152227 | 65 | 133 | 1.0 | 2.0 | 0.00 | 0.00 | 0.00 | 58 | 3408.5 |
| 20260508151723 | 65 | 135 | 1.0 | 3.0 | 0.00 | 0.00 | 0.00 | 58 | 3408.7 |
| 20260508151220 | 65 | 100 | 0.0 | 0.0 | 0.00 | 0.00 | 0.00 | 59 | 3408.5 |
| 20260508150717 | 64 | 146 | 2.0 | 3.0 | 0.00 | 0.00 | 0.00 | 58 | 3408.6 |
| 20260508150214 | 64 | 151 | 1.0 | 2.0 | 0.00 | 0.00 | 0.00 | 55 | 3408.7 |
| 20260508145709 | 64 | 150 | 2.0 | 3.0 | 0.00 | 0.00 | 0.00 | 59 | 3408.8 |
| 20260508145206 | 63 | 117 | 0.0 | 2.0 | 0.00 | 0.00 | 0.00 | 58 | 3408.6 |
| 20260508144703 | 63 | 166 | 2.0 | 3.0 | 0.00 | 0.00 | 0.00 | 57 | 3408.8 |
| 20260508144201 | 63 | 162 | 1.0 | 3.0 | 0.00 | 0.00 | 0.00 | 58 | 3408.7 |
| 20260508143658 | 63 | 252 | 3.0 | 5.0 | 0.00 | 0.00 | 0.00 | 60 | 3408.7 |
| 20260508143155 | 62 | 166 | 0.0 | 0.0 | 0.00 | 0.00 | 0.00 | 60 | 3408.7 |
| 20260508142651 | 62 | 163 | 1.0 | 2.0 | 0.00 | 0.00 | 0.00 | 61 | 3408.7 |
| 20260508142148 | 61 | 177 | 3.0 | 7.0 | 0.00 | 0.00 | 0.00 | 61 | 3408.8 |
| 20260508141644 | 61 | 157 | 1.0 | 2.0 | 0.00 | 0.00 | 0.00 | 63 | 3408.8 |
| 20260508141142 | 60 | 110 | 4.0 | 7.0 | 0.00 | 0.00 | 0.00 | 66 | 3408.9 |
| 20260508140640 | 60 | 271 | 0.0 | 0.0 | 0.00 | 0.00 | 0.00 | 71 | 3408.9 |
| 20260508140136 | 59 | 160 | 2.0 | 2.0 | 0.00 | 0.00 | 0.00 | 72 | 3409.0 |
| 20260508135631 | 59 | 160 | 0.0 | 0.0 | 0.00 | 0.00 | 0.00 | 73 | 3408.9 |
| 20260508135127 | 58 | 160 | 0.0 | 0.0 | 0.00 | 0.00 | 0.00 | 74 | 3409.2 |
| 20260508134625 | 57 | 160 | 0.0 | 0.0 | 0.00 | 0.00 | 0.00 | 74 | 3409.0 |
| 20260508134122 | 57 | 160 | 0.0 | 0.0 | 0.00 | 0.00 | 0.00 | 77 | 3409.0 |
| 20260508133618 | 56 | 160 | 0.0 | 0.0 | 0.00 | 0.00 | 0.00 | 77 | 3409.2 |
| 20260508133116 | 55 | 160 | 0.0 | 0.0 | 0.00 | 0.00 | 0.00 | 77 | 3409.0 |
| 20260508132614 | 55 | 160 | 0.0 | 0.0 | 0.00 | 0.00 | 0.00 | 77 | 3409.1 |
| 20260508132110 | 54 | 160 | 0.0 | 0.0 | 0.00 | 0.00 | 0.00 | 76 | 3409.2 |
| 20260508131606 | 53 | 161 | 1.0 | 2.0 | 0.00 | 0.00 | 0.00 | 77 | 3409.2 |
| 20260508131103 | 52 | 142 | 0.0 | 2.0 | 0.00 | 0.00 | 0.00 | 78 | 3409.0 |
| 20260508130559 | 51 | 134 | 1.0 | 2.0 | 0.00 | 0.00 | 0.00 | 81 | 3408.8 |
| 20260508130056 | 50 | 129 | 0.0 | 0.0 | 0.00 | 0.00 | 0.00 | 87 | 3409.0 |
| 20260508125551 | 49 | 127 | 2.0 | 3.0 | 0.00 | 0.00 | 0.00 | 92 | 3408.9 |
| 20260508125050 | 48 | 89 | 1.0 | 2.0 | 0.00 | 0.00 | 0.00 | 97 | 3409.0 |
| 20260508124548 | 47 | 60 | 0.0 | 0.0 | 0.00 | 0.00 | 0.00 | 99 | 3408.7 |
| 20260508124044 | 47 | 51 | 0.0 | 0.0 | 0.00 | 0.00 | 0.00 | 99 | 3409.0 |
| 20260508123543 | 46 | 49 | 0.0 | 0.0 | 0.00 | 0.00 | 0.00 | 99 | 3408.8 |
| 20260508123039 | 46 | 49 | 0.0 | 0.0 | 0.00 | 0.00 | 0.00 | 99 | 3408.7 |
| 20260508122536 | 45 | 46 | 0.0 | 0.0 | 0.00 | 0.00 | 0.00 | 99 | 3408.8 |
| 20260508122033 | 45 | 46 | 0.0 | 0.0 | 0.00 | 0.00 | 0.00 | 99 | 3408.9 |
| 20260508121531 | 44 | 46 | 0.0 | 0.0 | 0.00 | 0.00 | 0.00 | 99 | 3408.7 |
| 20260508121029 | 43 | 46 | 0.0 | 0.0 | 0.00 | 0.00 | 0.00 | 99 | 3408.6 |
| 20260508120526 | 43 | 46 | 0.0 | 0.0 | 0.00 | 0.00 | 0.00 | 99 | 3408.7 |
| 20260508120024 | 42 | 46 | 0.0 | 0.0 | 0.00 | 0.00 | 0.00 | 99 | 3408.7 |
| 20260508115521 | 42 | 46 | 0.0 | 0.0 | 0.00 | 0.00 | 0.00 | 99 | 3408.7 |
| 20260508115018 | 42 | 47 | 0.0 | 0.0 | 0.00 | 0.00 | 0.00 | 99 | 3408.6 |
| 20260508114514 | 42 | 47 | 0.0 | 0.0 | 0.00 | 0.00 | 0.00 | 99 | 3408.7 |
| 20260508114011 | 41 | 47 | 0.0 | 0.0 | 0.00 | 0.00 | 0.00 | 99 | 3408.8 |
| 20260508113509 | 41 | 47 | 0.0 | 0.0 | 0.00 | 0.00 | 0.00 | 99 | 3408.8 |
| 20260508113006 | 41 | 47 | 0.0 | 0.0 | 0.00 | 0.00 | 0.00 | 99 | 3408.7 |
| 20260508112502 | 41 | 47 | 0.0 | 0.0 | 0.00 | 0.00 | 0.00 | 99 | 3408.7 |
| 20260508111959 | 41 | 47 | 0.0 | 0.0 | 0.00 | 0.00 | 0.00 | 99 | 3408.5 |
| 20260508111456 | 40 | 47 | 0.0 | 0.0 | 0.00 | 0.00 | 0.00 | 99 | 3408.5 |
| 20260508110953 | 40 | 47 | 0.0 | 0.0 | 0.00 | 0.00 | 0.00 | 99 | 3408.5 |
| 20260508110451 | 40 | 47 | 0.0 | 0.0 | 0.00 | 0.00 | 0.00 | 99 | 3408.4 |
| 20260508105950 | 40 | 47 | 0.0 | 0.0 | 0.00 | 0.00 | 0.00 | 99 | 3408.3 |
| 20260508105447 | 40 | 47 | 0.0 | 0.0 | 0.00 | 0.00 | 0.00 | 99 | 3408.3 |
| 20260508104944 | 40 | 47 | 0.0 | 0.0 | 0.00 | 0.00 | 0.00 | 99 | 3408.3 |
| 20260508104442 | 40 | 47 | 0.0 | 0.0 | 0.00 | 0.00 | 0.00 | 99 | 3408.4 |
| 20260508103938 | 40 | 47 | 0.0 | 0.0 | 0.00 | 0.00 | 0.00 | 99 | 3408.4 |
| 20260508103436 | 40 | 47 | 0.0 | 0.0 | 0.00 | 0.00 | 0.00 | 99 | 3408.4 |
| 20260508102932 | 40 | 47 | 0.0 | 0.0 | 0.00 | 0.00 | 0.00 | 99 | 3408.2 |
| 20260508102431 | 40 | 47 | 0.0 | 0.0 | 0.00 | 0.00 | 0.00 | 99 | 3408.2 |
| 20260508101927 | 41 | 47 | 0.0 | 0.0 | 0.00 | 0.00 | 0.00 | 99 | 3408.2 |
| 20260508101425 | 40 | 47 | 0.0 | 0.0 | 0.00 | 0.00 | 0.00 | 99 | 3408.2 |
| 20260508100922 | 40 | 47 | 0.0 | 0.0 | 0.00 | 0.00 | 0.00 | 99 | 3408.3 |
| 20260508100421 | 41 | 47 | 0.0 | 0.0 | 0.00 | 0.00 | 0.00 | 99 | 3408.3 |
| 20260508095917 | 40 | 47 | 0.0 | 0.0 | 0.00 | 0.00 | 0.00 | 99 | 3408.1 |
| 20260508095414 | 41 | 47 | 0.0 | 0.0 | 0.00 | 0.00 | 0.00 | 99 | 3408.3 |
| 20260508094910 | 41 | 47 | 0.0 | 0.0 | 0.00 | 0.00 | 0.00 | 99 | 3408.2 |
| 20260508094408 | 41 | 47 | 0.0 | 0.0 | 0.00 | 0.00 | 0.00 | 99 | 3408.2 |
| 20260508093905 | 41 | 47 | 0.0 | 0.0 | 0.00 | 0.00 | 0.00 | 99 | 3408.4 |
| 20260508093402 | 41 | 47 | 0.0 | 0.0 | 0.00 | 0.00 | 0.00 | 99 | 3408.4 |
| 20260508092900 | 41 | 47 | 0.0 | 0.0 | 0.00 | 0.00 | 0.00 | 99 | 3408.5 |
| 20260508092357 | 41 | 47 | 0.0 | 0.0 | 0.00 | 0.00 | 0.00 | 99 | 3408.0 |
| 20260508091856 | 41 | 47 | 0.0 | 0.0 | 0.00 | 0.00 | 0.00 | 99 | 3408.4 |
| 20260508091352 | 41 | 47 | 0.0 | 0.0 | 0.00 | 0.00 | 0.00 | 99 | 3408.4 |
| 20260508090849 | 41 | 47 | 0.0 | 0.0 | 0.00 | 0.00 | 0.00 | 99 | 3408.2 |
| 20260508090348 | 41 | 47 | 0.0 | 0.0 | 0.00 | 0.00 | 0.00 | 99 | 3408.2 |
| 20260508085843 | 41 | 47 | 0.0 | 0.0 | 0.00 | 0.00 | 0.00 | 99 | 3408.3 |
| 20260508085340 | 41 | 47 | 0.0 | 0.0 | 0.00 | 0.00 | 0.00 | 99 | 3408.2 |
| 20260508084837 | 41 | 47 | 0.0 | 0.0 | 0.00 | 0.00 | 0.00 | 99 | 3408.3 |
| 20260508084333 | 42 | 47 | 0.0 | 0.0 | 0.00 | 0.00 | 0.00 | 99 | 3408.3 |
| 20260508083831 | 42 | 47 | 0.0 | 0.0 | 0.00 | 0.00 | 0.00 | 99 | 3408.4 |
| 20260508083328 | 42 | 47 | 0.0 | 0.0 | 0.00 | 0.00 | 0.00 | 99 | 3408.3 |
| 20260508082828 | 42 | 47 | 0.0 | 0.0 | 0.00 | 0.00 | 0.00 | 99 | 3408.4 |
| 20260508082326 | 42 | 47 | 0.0 | 0.0 | 0.00 | 0.00 | 0.00 | 99 | 3408.6 |
| 20260508081823 | 42 | 47 | 0.0 | 0.0 | 0.00 | 0.00 | 0.00 | 99 | 3408.5 |
| 20260508081320 | 42 | 47 | 0.0 | 0.0 | 0.00 | 0.00 | 0.00 | 99 | 3408.4 |
| 20260508080817 | 42 | 47 | 0.0 | 0.0 | 0.00 | 0.00 | 0.00 | 99 | 3408.6 |
| 20260508080315 | 42 | 47 | 0.0 | 0.0 | 0.00 | 0.00 | 0.00 | 99 | 3408.5 |
| 20260508075811 | 42 | 47 | 0.0 | 0.0 | 0.00 | 0.00 | 0.00 | 99 | 3408.6 |
| 20260508075309 | 42 | 47 | 0.0 | 0.0 | 0.00 | 0.00 | 0.00 | 99 | 3408.8 |
| 20260508074806 | 42 | 47 | 0.0 | 0.0 | 0.00 | 0.00 | 0.00 | 99 | 3408.7 |
| 20260508074303 | 42 | 46 | 0.0 | 0.0 | 0.00 | 0.00 | 0.00 | 99 | 3408.5 |
| 20260508073800 | 42 | 46 | 0.0 | 0.0 | 0.00 | 0.00 | 0.00 | 99 | 3408.6 |
| 20260508073258 | 42 | 46 | 0.0 | 0.0 | 0.00 | 0.00 | 0.00 | 99 | 3408.7 |
| 20260508072753 | 42 | 46 | 0.0 | 0.0 | 0.00 | 0.00 | 0.00 | 99 | 3408.8 |
| 20260508072251 | 42 | 46 | 0.0 | 0.0 | 0.00 | 0.00 | 0.00 | 99 | 3408.9 |
| 20260508071748 | 42 | 46 | 0.0 | 0.0 | 0.00 | 0.00 | 0.00 | 99 | 3408.8 |
| 20260508071246 | 42 | 46 | 0.0 | 0.0 | 0.00 | 0.00 | 0.00 | 99 | 3408.8 |
| 20260508070743 | 42 | 46 | 0.0 | 0.0 | 0.00 | 0.00 | 0.00 | 99 | 3408.8 |
| 20260508070242 | 43 | 46 | 0.0 | 0.0 | 0.00 | 0.00 | 0.00 | 99 | 3408.8 |
| 20260508065738 | 43 | 46 | 0.0 | 0.0 | 0.00 | 0.00 | 0.00 | 99 | 3408.6 |
| 20260508065236 | 43 | 46 | 0.0 | 0.0 | 0.00 | 0.00 | 0.00 | 98 | 3408.7 |
| 20260508064734 | 43 | 46 | 0.0 | 0.0 | 0.00 | 0.00 | 0.00 | 98 | 3408.9 |
| 20260508064232 | 43 | 46 | 0.0 | 0.0 | 0.00 | 0.00 | 0.00 | 98 | 3408.9 |
| 20260508063729 | 43 | 46 | 0.0 | 0.0 | 0.00 | 0.00 | 0.00 | 98 | 3408.8 |
| 20260508063227 | 43 | 46 | 0.0 | 0.0 | 0.00 | 0.00 | 0.00 | 98 | 3409.0 |
| 20260508062724 | 43 | 46 | 0.0 | 0.0 | 0.00 | 0.00 | 0.00 | 98 | 3409.1 |
| 20260508062222 | 43 | 46 | 0.0 | 0.0 | 0.00 | 0.00 | 0.00 | 98 | 3409.0 |
| 20260508061718 | 43 | 46 | 0.0 | 0.0 | 0.00 | 0.00 | 0.00 | 98 | 3409.0 |
| 20260508061216 | 43 | 46 | 0.0 | 0.0 | 0.00 | 0.00 | 0.00 | 98 | 3409.0 |
| 20260508060712 | 43 | 46 | 0.0 | 0.0 | 0.00 | 0.00 | 0.00 | 98 | 3409.1 |
| 20260508060210 | 43 | 46 | 0.0 | 0.0 | 0.00 | 0.00 | 0.00 | 98 | 3409.0 |
| 20260508055705 | 43 | 46 | 0.0 | 0.0 | 0.00 | 0.00 | 0.00 | 98 | 3409.0 |
| 20260508055202 | 43 | 46 | 0.0 | 0.0 | 0.00 | 0.00 | 0.00 | 98 | 3409.0 |
| 20260508054658 | 43 | 46 | 0.0 | 0.0 | 0.00 | 0.00 | 0.00 | 98 | 3409.2 |
| 20260508054156 | 44 | 46 | 0.0 | 0.0 | 0.00 | 0.00 | 0.00 | 98 | 3408.9 |
| 20260508053653 | 44 | 46 | 0.0 | 0.0 | 0.00 | 0.00 | 0.00 | 97 | 3409.1 |
| 20260508053150 | 44 | 46 | 0.0 | 0.0 | 0.00 | 0.00 | 0.00 | 97 | 3409.0 |
| 20260508052648 | 44 | 46 | 0.0 | 0.0 | 0.00 | 0.00 | 0.00 | 97 | 3409.0 |
| 20260508052144 | 44 | 46 | 0.0 | 0.0 | 0.00 | 0.00 | 0.00 | 97 | 3409.1 |
| 20260508051641 | 44 | 46 | 0.0 | 0.0 | 0.00 | 0.00 | 0.00 | 97 | 3409.1 |
| 20260508051136 | 44 | 46 | 0.0 | 0.0 | 0.00 | 0.00 | 0.00 | 97 | 3409.0 |
| 20260508050633 | 44 | 46 | 0.0 | 0.0 | 0.00 | 0.00 | 0.00 | 97 | 3408.9 |
| 20260508050131 | 44 | 46 | 0.0 | 0.0 | 0.00 | 0.00 | 0.00 | 97 | 3408.8 |
| 20260508045626 | 44 | 46 | 0.0 | 0.0 | 0.00 | 0.00 | 0.00 | 96 | 3409.1 |
| 20260508045124 | 45 | 44 | 0.0 | 0.0 | 0.00 | 0.00 | 0.00 | 96 | 3408.8 |
| 20260508044621 | 45 | 44 | 0.0 | 0.0 | 0.00 | 0.00 | 0.00 | 96 | 3409.0 |
| 20260508044117 | 44 | 44 | 0.0 | 0.0 | 0.00 | 0.00 | 0.00 | 96 | 3409.2 |
| 20260508043614 | 45 | 44 | 0.0 | 0.0 | 0.00 | 0.00 | 0.00 | 96 | 3409.2 |
| 20260508043112 | 45 | 44 | 0.0 | 0.0 | 0.00 | 0.00 | 0.00 | 95 | 3409.2 |
| 20260508042608 | 45 | 44 | 0.0 | 0.0 | 0.00 | 0.00 | 0.00 | 95 | 3409.3 |
| 20260508042106 | 45 | 44 | 0.0 | 0.0 | 0.00 | 0.00 | 0.00 | 95 | 3409.4 |
| 20260508041601 | 46 | 44 | 0.0 | 0.0 | 0.00 | 0.00 | 0.00 | 95 | 3409.5 |
| 20260508041058 | 46 | 44 | 0.0 | 0.0 | 0.00 | 0.00 | 0.00 | 95 | 3408.9 |
| 20260508040555 | 46 | 44 | 0.0 | 0.0 | 0.00 | 0.00 | 0.00 | 94 | 3409.1 |
| 20260508040053 | 46 | 44 | 0.0 | 0.0 | 0.00 | 0.00 | 0.00 | 94 | 3409.1 |
| 20260508035549 | 46 | 44 | 0.0 | 0.0 | 0.00 | 0.00 | 0.00 | 94 | 3409.2 |
| 20260508035047 | 46 | 44 | 0.0 | 0.0 | 0.00 | 0.00 | 0.00 | 93 | 3408.9 |
| 20260508034543 | 46 | 44 | 0.0 | 0.0 | 0.00 | 0.00 | 0.00 | 92 | 3409.0 |
| 20260508034040 | 46 | 44 | 0.0 | 0.0 | 0.00 | 0.00 | 0.00 | 92 | 3408.9 |
| 20260508033538 | 46 | 43 | 0.0 | 0.0 | 0.00 | 0.00 | 0.00 | 92 | 3408.9 |
| 20260508033036 | 47 | 39 | 0.0 | 0.0 | 0.00 | 0.00 | 0.00 | 91 | 3409.1 |
| 20260508032532 | 47 | 39 | 0.0 | 0.0 | 0.00 | 0.00 | 0.00 | 90 | 3409.0 |
| 20260508032030 | 47 | 39 | 0.0 | 0.0 | 0.00 | 0.00 | 0.00 | 90 | 3409.0 |
| 20260508031527 | 47 | 39 | 0.0 | 0.0 | 0.00 | 0.00 | 0.00 | 89 | 3409.0 |
| 20260508031023 | 47 | 39 | 0.0 | 0.0 | 0.00 | 0.00 | 0.00 | 89 | 3409.0 |
| 20260508030520 | 47 | 39 | 0.0 | 0.0 | 0.00 | 0.00 | 0.00 | 89 | 3408.9 |
| 20260508030018 | 47 | 39 | 0.0 | 0.0 | 0.00 | 0.00 | 0.00 | 88 | 3409.0 |
| 20260508025513 | 48 | 39 | 0.0 | 0.0 | 0.00 | 0.00 | 0.00 | 87 | 3408.9 |
| 20260508025010 | 48 | 39 | 0.0 | 0.0 | 0.00 | 0.00 | 0.00 | 86 | 3409.0 |
| 20260508024506 | 48 | 39 | 0.0 | 0.0 | 0.00 | 0.00 | 0.00 | 85 | 3409.1 |
| 20260508024003 | 48 | 39 | 0.0 | 0.0 | 0.00 | 0.00 | 0.00 | 84 | 3409.1 |
| 20260508023500 | 48 | 39 | 0.0 | 0.0 | 0.00 | 0.00 | 0.00 | 83 | 3409.1 |
| 20260508022958 | 49 | 39 | 0.0 | 0.0 | 0.00 | 0.00 | 0.00 | 83 | 3409.1 |
| 20260508022453 | 49 | 39 | 0.0 | 0.0 | 0.00 | 0.00 | 0.00 | 82 | 3409.1 |
| 20260508021950 | 49 | 39 | 0.0 | 0.0 | 0.00 | 0.00 | 0.00 | 81 | 3408.9 |
| 20260508021446 | 49 | 39 | 0.0 | 0.0 | 0.00 | 0.00 | 0.00 | 80 | 3408.9 |
| 20260508020942 | 49 | 39 | 0.0 | 0.0 | 0.00 | 0.00 | 0.00 | 79 | 3409.0 |
| 20260508020440 | 50 | 35 | 0.0 | 0.0 | 0.00 | 0.00 | 0.00 | 78 | 3408.7 |
| 20260508015937 | 50 | 34 | 0.0 | 0.0 | 0.00 | 0.00 | 0.00 | 77 | 3408.7 |
| 20260508015435 | 50 | 33 | 0.0 | 0.0 | 0.00 | 0.00 | 0.00 | 76 | 3408.8 |
| 20260508014931 | 51 | 33 | 0.0 | 0.0 | 0.00 | 0.00 | 0.00 | 75 | 3408.7 |
| 20260508014428 | 51 | 33 | 0.0 | 0.0 | 0.00 | 0.00 | 0.00 | 75 | 3408.5 |
| 20260508013924 | 51 | 33 | 0.0 | 0.0 | 0.00 | 0.00 | 0.00 | 75 | 3408.5 |
| 20260508013420 | 52 | 33 | 0.0 | 0.0 | 0.00 | 0.00 | 0.00 | 74 | 3408.5 |
| 20260508012917 | 52 | 33 | 0.0 | 0.0 | 0.00 | 0.00 | 0.00 | 73 | 3408.5 |
| 20260508012414 | 52 | 33 | 0.0 | 0.0 | 0.00 | 0.00 | 0.00 | 72 | 3408.5 |
| 20260508011912 | 53 | 33 | 0.0 | 0.0 | 0.00 | 0.00 | 0.00 | 71 | 3408.5 |
| 20260508011410 | 53 | 33 | 0.0 | 0.0 | 0.00 | 0.00 | 0.00 | 71 | 3408.3 |
| 20260508010907 | 54 | 33 | 0.0 | 0.0 | 0.00 | 0.00 | 0.00 | 68 | 3408.1 |
| 20260508010404 | 54 | 33 | 0.0 | 0.0 | 0.00 | 0.00 | 0.00 | 67 | 3408.4 |
| 20260508005901 | 55 | 33 | 0.0 | 0.0 | 0.00 | 0.00 | 0.00 | 68 | 3408.2 |
| 20260508005357 | 55 | 32 | 0.0 | 0.0 | 0.00 | 0.00 | 0.00 | 67 | 3408.1 |
| 20260508004854 | 56 | 32 | 0.0 | 0.0 | 0.00 | 0.00 | 0.00 | 65 | 3408.2 |
| 20260508004350 | 56 | 33 | 0.0 | 0.0 | 0.00 | 0.00 | 0.00 | 63 | 3408.0 |
| 20260508003847 | 57 | 32 | 0.0 | 0.0 | 0.00 | 0.00 | 0.00 | 63 | 3407.9 |
| 20260508003344 | 57 | 32 | 0.0 | 0.0 | 0.00 | 0.00 | 0.00 | 64 | 3408.1 |
| 20260508002841 | 58 | 32 | 0.0 | 0.0 | 0.00 | 0.00 | 0.00 | 60 | 3408.1 |
| 20260508002338 | 58 | 32 | 0.0 | 0.0 | 0.00 | 0.00 | 0.00 | 57 | 3408.0 |
| 20260508001834 | 59 | 32 | 0.0 | 0.0 | 0.00 | 0.00 | 0.00 | 57 | 3407.8 |
| 20260508001330 | 60 | 32 | 0.0 | 0.0 | 0.00 | 0.00 | 0.00 | 54 | 3407.9 |
| 20260508000826 | 60 | 32 | 0.0 | 0.0 | 0.00 | 0.00 | 0.00 | 51 | 3407.8 |
| 20260508000323 | 61 | 32 | 0.0 | 0.0 | 0.00 | 0.00 | 0.00 | 51 | 3407.7 |
| 20260507235820 | 61 | 32 | 0.0 | 0.0 | 0.00 | 0.00 | 0.00 | 50 | 3407.9 |
| 20260507235317 | 62 | 32 | 0.0 | 0.0 | 0.00 | 0.00 | 0.00 | 48 | 3407.7 |
| 20260507234814 | 62 | 52 | 0.0 | 0.0 | 0.00 | 0.00 | 0.00 | 46 | 3407.6 |
| 20260507234311 | 62 | 53 | 0.0 | 0.0 | 0.00 | 0.00 | 0.00 | 44 | 3407.5 |
| 20260507233807 | 63 | 74 | 1.0 | 2.0 | 0.00 | 0.00 | 0.00 | 43 | 3407.8 |
| 20260507233305 | 63 | 37 | 0.0 | 2.0 | 0.00 | 0.00 | 0.00 | 44 | 3407.6 |
| 20260507232803 | 63 | 70 | 0.0 | 0.0 | 0.00 | 0.00 | 0.00 | 43 | 3407.7 |
| 20260507232259 | 64 | 353 | 2.0 | 3.0 | 0.00 | 0.00 | 0.00 | 42 | 3407.7 |
| 20260507231755 | 64 | 38 | 0.0 | 2.0 | 0.00 | 0.00 | 0.00 | 42 | 3407.6 |
| 20260507231253 | 65 | 44 | 1.0 | 2.0 | 0.00 | 0.00 | 0.00 | 42 | 3407.8 |
| 20260507230749 | 66 | 41 | 1.0 | 2.0 | 0.00 | 0.00 | 0.00 | 40 | 3407.8 |
| 20260507230247 | 67 | 56 | 0.0 | 0.0 | 0.00 | 0.00 | 0.00 | 42 | 3407.8 |
| 20260507225746 | 66 | 302 | 2.0 | 3.0 | 0.00 | 0.00 | 0.00 | 40 | 3407.8 |
| 20260507225242 | 67 | 337 | 3.0 | 3.0 | 0.00 | 0.00 | 0.00 | 38 | 3407.8 |
| 20260507224738 | 66 | 26 | 1.0 | 2.0 | 0.00 | 0.00 | 0.00 | 41 | 3407.7 |
| 20260507224235 | 67 | 24 | 1.0 | 2.0 | 0.00 | 0.00 | 0.00 | 40 | 3408.0 |
| 20260507223731 | 67 | 302 | 1.0 | 2.0 | 0.00 | 0.00 | 0.00 | 39 | 3407.8 |
| 20260507223228 | 66 | 14 | 1.0 | 2.0 | 0.00 | 0.00 | 0.00 | 40 | 3407.8 |
| 20260507222725 | 68 | 326 | 4.0 | 5.0 | 0.00 | 0.00 | 0.00 | 38 | 3408.1 |
| 20260507222221 | 68 | 273 | 0.0 | 0.0 | 0.00 | 0.00 | 0.00 | 39 | 3408.1 |
| 20260507221718 | 67 | 117 | 0.0 | 0.0 | 0.00 | 0.00 | 0.00 | 39 | 3408.0 |
| 20260507221214 | 67 | 190 | 0.0 | 2.0 | 0.00 | 0.00 | 0.00 | 41 | 3407.9 |
| 20260507220711 | 66 | 216 | 2.0 | 3.0 | 0.00 | 0.00 | 0.00 | 41 | 3407.9 |
| 20260507220210 | 67 | 51 | 1.0 | 2.0 | 0.00 | 0.00 | 0.00 | 39 | 3407.8 |
| 20260507215705 | 67 | 318 | 4.0 | 8.0 | 0.00 | 0.00 | 0.00 | 38 | 3407.9 |
| 20260507215203 | 67 | 50 | 1.0 | 2.0 | 0.00 | 0.00 | 0.00 | 38 | 3407.7 |
| 20260507214700 | 67 | 52 | 0.0 | 2.0 | 0.00 | 0.00 | 0.00 | 39 | 3407.6 |
| 20260507214156 | 68 | 35 | 1.0 | 2.0 | 0.00 | 0.00 | 0.00 | 40 | 3407.6 |
| 20260507213652 | 68 | 355 | 2.0 | 3.0 | 0.00 | 0.00 | 0.00 | 40 | 3407.8 |
| 20260507213150 | 67 | 113 | 1.0 | 2.0 | 0.00 | 0.00 | 0.00 | 40 | 3407.7 |
| 20260507212646 | 67 | 29 | 1.0 | 2.0 | 0.00 | 0.00 | 0.00 | 39 | 3407.5 |
| 20260507212143 | 67 | 48 | 0.0 | 2.0 | 0.00 | 0.00 | 0.00 | 42 | 3407.8 |
| 20260507211640 | 65 | 323 | 0.0 | 2.0 | 0.00 | 0.00 | 0.00 | 42 | 3407.6 |
| 20260507211135 | 66 | 166 | 0.0 | 0.0 | 0.00 | 0.00 | 0.00 | 42 | 3407.7 |
| 20260507210633 | 65 | 65 | 0.0 | 0.0 | 0.00 | 0.00 | 0.00 | 42 | 3407.7 |
| 20260507210129 | 65 | 303 | 6.0 | 7.0 | 0.00 | 0.00 | 0.00 | 41 | 3407.8 |
| 20260507205626 | 65 | 53 | 0.0 | 0.0 | 0.00 | 0.00 | 0.00 | 44 | 3407.9 |
| 20260507205122 | 64 | 359 | 2.0 | 2.0 | 0.00 | 0.00 | 0.00 | 45 | 3407.8 |
| 20260507204619 | 64 | 163 | 4.0 | 5.0 | 0.00 | 0.00 | 0.00 | 43 | 3407.8 |
| 20260507204116 | 65 | 284 | 5.0 | 7.0 | 0.00 | 0.00 | 0.00 | 41 | 3407.7 |
| 20260507203614 | 65 | 166 | 0.0 | 2.0 | 0.00 | 0.00 | 0.00 | 43 | 3407.9 |
| 20260507203111 | 65 | 287 | 4.0 | 5.0 | 0.00 | 0.00 | 0.00 | 43 | 3408.1 |
| 20260507202607 | 65 | 110 | 0.0 | 0.0 | 0.00 | 0.00 | 0.00 | 45 | 3407.8 |
| 20260507202104 | 65 | 152 | 0.0 | 2.0 | 0.00 | 0.00 | 0.00 | 46 | 3407.8 |
| 20260507201559 | 65 | 89 | 1.0 | 3.0 | 0.00 | 0.00 | 0.00 | 43 | 3407.9 |
| 20260507201056 | 64 | 102 | 0.0 | 0.0 | 0.00 | 0.00 | 0.00 | 44 | 3408.0 |
| 20260507200551 | 64 | 302 | 3.0 | 5.0 | 0.00 | 0.00 | 0.00 | 40 | 3407.7 |
| 20260507200047 | 64 | 153 | 2.0 | 2.0 | 0.00 | 0.00 | 0.00 | 40 | 3408.0 |
| 20260507195545 | 64 | 350 | 2.0 | 3.0 | 0.00 | 0.00 | 0.00 | 42 | 3408.1 |
| 20260507195042 | 64 | 323 | 1.0 | 2.0 | 0.00 | 0.00 | 0.00 | 42 | 3408.1 |
| 20260507194538 | 65 | 357 | 3.0 | 5.0 | 0.00 | 0.00 | 0.00 | 44 | 3408.2 |
| 20260507194035 | 65 | 256 | 5.0 | 7.0 | 0.00 | 0.00 | 0.00 | 41 | 3408.2 |
| 20260507193532 | 65 | 241 | 3.0 | 3.0 | 0.00 | 0.00 | 0.00 | 40 | 3408.2 |
| 20260507193029 | 66 | 91 | 0.0 | 0.0 | 0.00 | 0.00 | 0.00 | 45 | 3408.1 |
| 20260507192525 | 66 | 313 | 3.0 | 3.0 | 0.00 | 0.00 | 0.00 | 41 | 3408.4 |
| 20260507192022 | 65 | 76 | 1.0 | 2.0 | 0.00 | 0.00 | 0.00 | 44 | 3408.3 |
| 20260507191517 | 65 | 313 | 7.0 | 8.0 | 0.00 | 0.00 | 0.00 | 41 | 3408.4 |
| 20260507191014 | 65 | 129 | 1.0 | 2.0 | 0.00 | 0.00 | 0.00 | 47 | 3408.4 |
| 20260507190512 | 64 | 58 | 1.0 | 2.0 | 0.00 | 0.00 | 0.00 | 45 | 3408.5 |
| 20260507190010 | 64 | 354 | 1.0 | 3.0 | 0.00 | 0.00 | 0.00 | 44 | 3408.4 |
| 20260507185508 | 64 | 67 | 0.0 | 0.0 | 0.00 | 0.00 | 0.00 | 44 | 3408.8 |
| 20260507185004 | 64 | 326 | 3.0 | 5.0 | 0.00 | 0.00 | 0.00 | 41 | 3408.5 |
| 20260507184503 | 64 | 340 | 4.0 | 5.0 | 0.00 | 0.00 | 0.00 | 44 | 3408.6 |
| 20260507184000 | 64 | 227 | 2.0 | 2.0 | 0.00 | 0.00 | 0.00 | 44 | 3408.4 |
| 20260507183456 | 64 | 10 | 4.0 | 5.0 | 0.00 | 0.00 | 0.00 | 46 | 3408.5 |
| 20260507182953 | 63 | 134 | 0.0 | 2.0 | 0.00 | 0.00 | 0.00 | 50 | 3408.4 |
| 20260507182449 | 63 | 88 | 0.0 | 2.0 | 0.00 | 0.00 | 0.00 | 43 | 3408.7 |
| 20260507181945 | 63 | 239 | 3.0 | 8.0 | 0.00 | 0.00 | 0.00 | 43 | 3408.7 |
| 20260507181442 | 64 | 301 | 9.0 | 15.0 | 0.00 | 0.00 | 0.00 | 43 | 3408.6 |
| 20260507180938 | 63 | 13 | 2.0 | 2.0 | 0.00 | 0.00 | 0.00 | 45 | 3408.6 |
| 20260507180435 | 62 | 293 | 4.0 | 5.0 | 0.00 | 0.00 | 0.00 | 43 | 3408.7 |
| 20260507175931 | 63 | 269 | 6.0 | 10.0 | 0.00 | 0.00 | 0.00 | 44 | 3408.9 |
| 20260507175428 | 64 | 4 | 5.0 | 7.0 | 0.00 | 0.00 | 0.00 | 42 | 3408.7 |
| 20260507174926 | 63 | 52 | 2.0 | 2.0 | 0.00 | 0.00 | 0.00 | 49 | 3408.7 |
| 20260507174423 | 62 | 216 | 1.0 | 2.0 | 0.00 | 0.00 | 0.00 | 47 | 3409.0 |
| 20260507173921 | 62 | 318 | 5.0 | 7.0 | 0.00 | 0.00 | 0.00 | 46 | 3408.9 |
| 20260507173417 | 62 | 330 | 2.0 | 3.0 | 0.00 | 0.00 | 0.00 | 45 | 3408.8 |
| 20260507172914 | 62 | 328 | 4.0 | 5.0 | 0.00 | 0.00 | 0.00 | 44 | 3409.0 |
| 20260507172411 | 63 | 100 | 0.0 | 2.0 | 0.00 | 0.00 | 0.00 | 44 | 3409.0 |
| 20260507171907 | 63 | 38 | 0.0 | 0.0 | 0.00 | 0.00 | 0.00 | 48 | 3409.0 |
| 20260507171403 | 63 | 269 | 3.0 | 3.0 | 0.00 | 0.00 | 0.00 | 46 | 3409.1 |
| 20260507170900 | 62 | 103 | 0.0 | 2.0 | 0.00 | 0.00 | 0.00 | 49 | 3409.2 |
| 20260507170357 | 62 | 110 | 1.0 | 2.0 | 0.00 | 0.00 | 0.00 | 55 | 3409.2 |
| 20260507165853 | 62 | 40 | 1.0 | 2.0 | 0.00 | 0.00 | 0.00 | 49 | 3409.3 |
| 20260507165349 | 62 | 108 | 0.0 | 0.0 | 0.00 | 0.00 | 0.00 | 48 | 3409.3 |
| 20260507164845 | 61 | 38 | 0.0 | 0.0 | 0.00 | 0.00 | 0.00 | 48 | 3409.3 |
| 20260507164342 | 61 | 136 | 4.0 | 5.0 | 0.00 | 0.00 | 0.00 | 49 | 3409.5 |
| 20260507163840 | 61 | 125 | 0.0 | 0.0 | 0.00 | 0.00 | 0.00 | 52 | 3409.5 |
| 20260507163337 | 61 | 203 | 3.0 | 5.0 | 0.00 | 0.00 | 0.00 | 53 | 3409.7 |
| 20260507162833 | 60 | 0 | 2.0 | 3.0 | 0.00 | 0.00 | 0.00 | 47 | 3409.7 |
| 20260507162329 | 60 | 241 | 4.0 | 5.0 | 0.00 | 0.00 | 0.00 | 51 | 3409.7 |